www.pogodaiklimat.ru

Погода и климат >> Архив погоды >> Канада >> Spence bay


ПОГОДА в Spence bay

  • Прогноз погоды в Spence bay
  • Монитор погоды в Spence bay
  • Климат города

АРХИВ ПОГОДЫ в Spence bay

Время (UTC), дата Ветер
(напр.,м/с)
 
Видим.   Явления Облачность Т
(С)
Тd
(С)
f
(%)
Тe
(С)
Тes
(С)
Комфортность P
(гПа)
Po
(гПа)
Тmin
(С)
Tmax
(С)
R
(мм)
R24
(мм)
S
(см)
15 17.06 В 5 24 км 8/8 1000 м
[]
+7.9 +0.4 59 +4 +5 1012.0 1008.5
18 17.06 ЮВ 6 24 км 9/9 1000 м
[]
+8.2 0.0 56 +5 +5 1011.4 1007.9 +3.2 +8.6
21 17.06 В 8 24 км 10/10 1500 м
[]
+7.0 0.0 61 +2 +2 1011.7 1008.2
00 18.06 В 9 24 км 9/9 1000 м
[]
+5.8 -0.9 62 0 0 1011.8 1008.3 +3.2 +9.1
06 18.06 В 7 24 км 9/9 300 м
[]
+3.1 -1.9 70 -3 -3 1011.8 1008.3 21
09 18.06 В 4 24 км 9/9 600 м
[]
+3.6 -2.0 67 -0 -0 1011.6 1008.1
12 18.06 СВ 6 24 км 8/8 600 м
[]
+3.8 -1.3 69 -2 -1 1011.6 1008.1
15 18.06 В 7 24 км 1/1 600 м
[]
+6.0 -0.7 62 +1 +3 1011.2 1007.7
18 18.06 В 8 24 км 8/0 2000 м
[Ac trans Ci]
+6.8 -0.2 61 +2 +4 1010.3 1006.8 +7.7
21 18.06 В 8 24 км 9/0 2000 м
[]
+6.9 +0.6 64 +2 +3 1010.2 1006.7
00 19.06 В 10 24 км 10/1 1000 м
[Sc Ac As Cs]
+4.9 -0.4 69 -1 -1 1008.9 1005.4 +2.7 +8.3
06 19.06 СВ 9 24 км слабый дождь 10/10 200 м
[Sc Ac und]
+1.1 -0.1 92 -7 -7 1006.4 1002.9 0.4 61
09 19.06 СВ 9 17 км 10/10 200 м
[]
+1.0 -0.1 92 -7 -7 1005.0 1001.5
12 19.06 СВ 10 16 км слабый дождь 10/10 200 м
[Frnb]
+1.1 0.0 92 -7 -7 1003.9 1000.4 0.6
15 19.06 СВ 5 14 км 10/10 200 м
[]
+1.5 +0.5 93 -4 -4 1003.1 999.6
18 19.06 СВ 11 16 км слабый ливневой дождь 10/10 100 м
[Sc]
+2.1 +1.1 93 -6 -6 1002.9 999.4 +2.4 5
21 19.06 СВ 8 12 км 10/10 100 м
[]
+2.6 +1.3 91 -4 -4 1003.9 1000.4
00 20.06 3200 м слабый снег н/о +2.5 +1.6 94 -4 -4 1004.5 1001.0 +0.9 +2.9 1
03 20.06 С 8 6000 м 10/10 100 м
[]
+2.0 +1.2 94 -5 -5 1005.0 1001.5
06 20.06 С 7 6000 м дымка {ливн. осадки, дождь} 10/10 100 м
[Frnb]
+1.0 +0.2 94 -6 -6 1005.7 1002.2 +0.8 +2.9 1 131
09 20.06 С 8 8000 м 10/10 300 м
[]
+0.8 +0.1 95 -7 -7 1006.3 1002.8
12 20.06 С 7 19 км слабый снег {дождь} 10/10 300 м
[Sc]
+1.5 +0.9 96 -5 -5 1007.0 1003.5 +0.8 +2.9 1
15 20.06 С 7 19 км 10/10 100 м
[]
+2.3 +1.2 92 -4 -4 1007.3 1003.8
18 20.06 С 8 24 км слабый дождь {ливн. осадки} 10/10 200 м
[Sc]
+3.1 +1.1 87 -3 -3 1007.6 1004.1 +0.8 +3.2 0.8
21 20.06 СВ 3 24 км 9/9 200 м
[]
+4.5 +1.0 78 +1 +2 1008.0 1004.5
00 21.06 С 7 24 км {дождь} 9/9 300 м
[Sc]
+4.4 +0.8 77 -1 -1 1008.3 1004.8 +0.8 +5.2 0.0
03 21.06 С 6 24 км 10/10 200 м
[]
+2.6 +1.3 91 -3 -3 1008.4 1004.9
06 21.06 С 5 24 км осадки на расстоянии {дождь} 10/10 200 м
[Frnb]
+2.4 +0.4 87 -3 -3 1008.2 1004.7 +0.8 +5.2 0.0 161
09 21.06 С 5 24 км 9/9 200 м
[]
+2.5 +0.8 89 -3 -3 1008.3 1004.8
12 21.06 С 5 24 км 10/10 200 м
[Frnb]
+2.7 +1.4 91 -3 -3 1008.8 1005.3 +2.1 +5.2
15 21.06 С 8 24 км 9/9 300 м
[]
+5.4 +2.4 81 -0 -0 1009.1 1005.6
18 21.06 С 7 24 км 9/9 300 м
[Cu Sc Ac trans]
+8.2 +1.5 63 +4 +4 1009.3 1005.8 +2.1 +8.4
21 21.06 С 8 24 км 4/4 300 м
[]
+9.2 +1.2 57 +5 +6 1010.0 1006.5
00 22.06 В 5 24 км 1/1 300 м
[Cu Sc]
+9.2 +0.1 53 +6 +8 1010.2 1006.7 +2.1 +10.1
03 22.06 З 2 24 км ясно +7.5 +0.9 63 +6 +7 1010.4 1006.9
06 22.06 Ю 1 24 км ясно +4.5 +0.1 73 +3 +3 1010.3 1006.8 +2.1 +10.1 211
09 22.06 С 1 24 км ясно +3.4 +0.4 81 +2 +2 1010.6 1007.1
12 22.06 СЗ 2 24 км ясно +5.2 -0.5 67 +3 +6 1011.3 1007.8 +2.7 +10.1
15 22.06 Ю 3 24 км ясно +6.5 +0.2 64 +4 +11 1011.5 1008.0
18 22.06 ЮЗ 4 24 км 1/1 600 м
[Cu hum Ci fib]
+7.0 +1.1 66 +4 +10 1012.0 1008.5 +2.7 +7.3
21 22.06 ЮЗ 4 24 км 3/3 300 м
[]
+9.0 +2.3 63 +7 +11 1012.6 1009.1
00 23.06 ЮЗ 4 24 км 4/1 600 м
[Cu Sc Ac trans Ci fib]
+7.4 +1.8 68 +4 +6 1013.2 1009.7 +2.7 +9.8
03 23.06 ЮЗ 3 24 км 3/3 600 м
[]
+5.1 +2.4 83 +2 +2 1013.5 1010.0
06 23.06 Ю 2 24 км 3/3 600 м
[Sc Ac trans Ci fib]
+2.1 +0.7 90 -1 -1 1013.7 1010.2 +2.1 +9.8 20
09 23.06 С 2 24 км 3/3 200 м
[]
+3.6 +1.8 88 +1 +2 1013.8 1010.3
12 23.06 СЗ 2 24 км 3/3 200 м
[Sc Ac und Ci]
+7.3 +2.8 73 +5 +7 1014.0 1010.5 +1.8 +9.8
15 23.06 Ю 3 24 км 3/3 300 м
[]
+5.6 +2.6 81 +2 +7 1013.9 1010.4
18 23.06 СЗ 5 24 км 1/1 200 м
[Cu Sc Ci fib]
+11.6 +0.4 46 +9 +14 1013.3 1009.8 +1.8 +11.7
21 23.06 СЗ 7 24 км 5/5 300 м
[]
+12.1 +2.8 53 +9 +10 1013.3 1009.8
00 24.06 СЗ 9 24 км 8/1 600 м
[Cu hum Ac As Cs]
+10.5 +2.9 59 +7 +7 1013.6 1010.1 +1.8 +13.0
03 24.06 СЗ 5 24 км 5/5 300 м
[]
+8.0 +2.2 67 +4 +5 1013.6 1010.1
06 24.06 ЮВ 2 24 км {ливн. осадки} 9/8 300 м
[Sc Ac trans]
+4.6 +1.7 81 +2 +2 1013.1 1009.6 +1.8 +13.0 0.0 11
09 24.06 ЮВ 2 24 км 9/9 300 м
[]
+2.7 +1.1 89 0 0 1012.5 1009.0
12 24.06 З 2 24 км слабый ливневой дождь 9/8 200 м
[Sc]
+5.6 +4.5 93 +3 +3 1012.8 1009.3 +2.2 +13.0 0.0

 

Местоположение метеостанции Spence bay (Канада): широта 69.55 долгота -93.58 высота над уровнем моря 28 м.

В архиве по умолчанию представлена погода в Spence bay за последнюю неделю. Архивные данные за месяц целиком и за предыдущие месяцы, начиная с января 2011 года, Вы можете получить, выбрав интересующий диапазон дат из раскрывающегося списка и нажав кнопку "Ввод!".

Внимание! Время в таблицах - всемирное. Для получения местного времени необходимо прибавить поправку, которая в Spence bay равна -6 ч.

Смотрите также архив погоды в соседних городах и на ближайших метеорологических станциях:

Погода в Shepherd Bay (Канада) (81 км)
Погода в Gjoa Haven Climate (Канада) (136 км)
Погода в Kugaaruk climate (Канада) (188 км)
Погода в Pelly Bay (Канада) (198 км)
Погода в Hat Island (Канада) (291 км)
Погода в Back River MAPS (Канада) (405 км)
Погода в Wager Bay (Канада) (444 км)
Погода в Cambridge Bay Gsn (Канада) (454 км)
Погода в Cambridge Bay Arpt (Канада) (454 км)
Погода в Ellice River AWS (Канада) (486 км)

Пояснения к столбцам:

Ветер - указаны скорость ветра в м/с - средняя за 10 мин, порывы в срок и между сроками (в фигурных скобках) и направление, откуда дует ветер: С - северный, СВ - северо-восточный, В - восточный, ЮВ - юго-восточный, Ю - южный, ЮЗ - юго-западный, З - западный, СЗ - северо-западный.
Видимость - горизонтальная дальность видимости в метрах или километрах. При видимости от 1 до 10 км при отсутствии осадков обычно наблюдается дымка, при ухудшении видимости до 1 км и менее - туман. В сухую погоду видимость может ухудшаться дымом, пылью или мглою.
Явления - указаны атмосферные явления, наблюдавшиеся в срок или в последний час перед сроком; фигурными скобками обозначены явления, наблюдавшиеся между сроками (за 1-3 часа до срока); квадратными скобками обозначены град или гололедные отложения с указанием их диаметра в мм.
Облачность - указаны через наклонную черту общая и нижняя облачность в баллах и высота нижней границы облаков в метрах; квадратными скобками обозначены формы облаков: Ci - перистые, Cs - перисто-слоистые, Cc - перисто-кучевые, Ac - высококучевые, As - высокослоистые, Sc - слоисто-кучевые, Ns - слоисто-дождевые, Cu - кучевые, Cb - кучево-дождевые. Подробнее классификацию облаков см. в Атласе облаков (PDF).
T - Температура воздуха - температура, измеренная на высоте 2 м над землей.
Td - Температура точки росы - температура, при понижении до которой содержащийся в воздухе водяной пар достигнет насыщения.
f - Относительная влажность воздуха - влажноcть воздуха, измеренная на высоте 2 м над землей.
Te - Эффективная температура - температура, которую ощущает одетый по сезону человек в тени. Характеристика душности погоды. При расчете учитывается влияние влажности воздуха и скорости ветра на теплоощущения человека.
Tes - Эффективная температура на солнце - температура, которую ощущает человек, с поправкой на солнечный нагрев. Характеристика знойности погоды. Зависит от высоты солнца над горизонтом, облачности и скорости ветра. Ночью, в пасмурную погоду, а также при ветре 12 м/с и более поправка равна нулю.
P - Атмосферное давление - приведенное к уровню моря атмосферное давление.
Po - Атмосферное давление - измеренное на уровне метеостанции атмосферное давление.
Tmin - Минимальная температура - минимум температуры воздуха на высоте 2 м над землей.
Tmax - Максимальная температура - максимум температуры воздуха на высоте 2 м над землей.
R - Количество осадков - Количество выпавших осадков за период времени, мм. При наведении курсора мыши на число - период времени, за который выпало указанное количество осадков.
R24 - Количество осадков - Количество выпавших осадков за 24 часа, мм.
S - Снежный покров - Высота снежного покрова, см. При наведении курсора мыши на число - состояние снежного покрова и степень покрытия местности в баллах.